NOAA 17 DEB, 48165

Orbit data source: Space-Track

NOAA 17 DEB, 48165 is space debris in SSO originally from a launch on Mon, 24 Jun 2002 UTC launched from the Air Force Western Test Range (AFWTR). Debris objects in space refer to the collection of defunct objects orbiting the Earth. Examples of debris include non-operational satellites, rocket bodies, and fragments generated from explosions, collisions, or faulty payload assembly.

Loading next visibility...
Identifier
48165, 2002-032F
Orbit
SSO
Country
Flag of USUS
Related business
Manufacturer
Unknown
Mission
Spacecraft
Bus & Motor
Unknown
Mass
Unknown
Launch date (UTC)
2002-06-24 (24 years ago)
Launch vehicle
Unknown
Launch site
Air Force Western Test Range (AFWTR)
Object type
Payload
Rocket body
Debris
Shape & HBR
Unknown shape, 0.1 m
Radar Cross Section
Medium (>0.1 m² and <1 m²)

Expand to show TLE details & history
Last TLE update: 2 days ago

TLE from 2 days ago
0 NOAA 17 DEB
1 48165U 02032F   26171.45147278  .00006310  00000-0  85554-3 0  9996
2 48165  98.6798 238.8663 0055984 204.4081 155.4475 14.78218351280864
Epoch: 2026-06-20T10:50Z
TLE epoch observation values (Epoch: 2026-06-20T10:50:07.248Z)
Latitude
-0.00002°
Longitude
167.6702°
Altitude
673.705 km
Speed
7.501 km/s
True Right ascension
15h 55m 27s
True Declination
0° 00' 00"
Sunlit
Object was in full shadow at epoch
Visualization orbit readout
Latitude
Unknown
Longitude
Unknown
Altitude
Unknown
Speed
Unknown
Apparent Right ascension
Unknown
Apparent Declination
Unknown
Sunlit
N/A
Visualization observer readout
Local Sidereal Time
21:35:06
Azimuth
Unknown
Elevation
Unknown
Doppler factor
Unknown
Orbital elements
Apogee altitude
671.279 km
Perigee altitude
592.788 km
Semi-major axis
7,010.17 km
Eccentricity
0.0056
Inclination
98.6798°
RAAN
238.8663°
Arg. of periapsis
204.4081°
True anomaly
155.71239°
Mean anomaly
155.4475°
Eccentric anomaly
155.58011°
Mean motion
3.69786 °/min
Orbital period
97.35 mins
BSTAR
0.00085554
Loading maneuver chart data...
Computing Atmospheric mass density...

Documentation

Showing up to 5 results
|